This is the latest recevied weather packets stored in our database for station/object NW5W-12. If no packets are shown the sender has not sent any weather packets the latest 1 day(s).
| Time | Temp. | Humidity | Pressure | Rain* | Wind** | Luminosity | Snow |
|---|---|---|---|---|---|---|---|
| 1778030142 | 9.44° C | 59% | 1011.9 hPa | 0.51 mm | 2.24 m/s, 207° | - | - |
| 1778029842 | 10° C | 59% | 1011.9 hPa | 0.51 mm | 1.79 m/s, 207° | - | - |
| 1778029542 | 10° C | 58% | 1011.9 hPa | 0.51 mm | 1.79 m/s, 204° | - | - |
| 1778029242 | 10° C | 58% | 1011.9 hPa | 0.51 mm | 2.68 m/s, 215° | - | - |
| 1778028942 | 10° C | 58% | 1012 hPa | 0.51 mm | 0.89 m/s, 196° | - | - |
| 1778028642 | 10.56° C | 58% | 1011.9 hPa | 0.51 mm | 1.79 m/s, 215° | - | - |
| 1778028342 | 10.56° C | 58% | 1011.9 hPa | 0.51 mm | 1.34 m/s, 202° | - | - |
| 1778028047 | 10.56° C | 57% | 1011.9 hPa | 0.51 mm | 1.34 m/s, 211° | - | - |
| 1778027742 | 10.56° C | 57% | 1011.9 hPa | 0.51 mm | 1.34 m/s, 217° | - | - |
| 1778027442 | 10.56° C | 57% | 1011.9 hPa | 0.51 mm | 1.79 m/s, 216° | - | - |
| 1778027142 | 10.56° C | 57% | 1012 hPa | 0.51 mm | 2.24 m/s, 177° | - | - |
| 1778026842 | 10.56° C | 59% | 1012 hPa | 0.51 mm | 1.79 m/s, 237° | - | - |
| 1778026542 | 10.56° C | 59% | 1012 hPa | 0.51 mm | 1.79 m/s, 163° | - | - |
| 1778026242 | 10° C | 59% | 1012 hPa | 0.51 mm | 1.34 m/s, 162° | - | - |
| 1778025942 | 10.56° C | 59% | 1012 hPa | 0.51 mm | 1.34 m/s, 212° | - | - |
| 1778025642 | 10.56° C | 58% | 1012 hPa | 0.51 mm | 1.34 m/s, 197° | - | - |
| 1778025342 | 10.56° C | 58% | 1011.9 hPa | 0.51 mm | 1.34 m/s, 199° | - | - |
| 1778025042 | 10.56° C | 57% | 1012 hPa | 0.51 mm | 1.34 m/s, 189° | - | - |
| 1778024742 | 10.56° C | 59% | 1012 hPa | 0.51 mm | 0 m/s | - | - |
| 1778024442 | 10.56° C | 58% | 1012 hPa | 0.51 mm | 1.79 m/s, 193° | - | - |
| 1778024142 | 10.56° C | 58% | 1012 hPa | 0.51 mm | 0.89 m/s, 188° | - | - |
| 1778023842 | 10.56° C | 58% | 1012 hPa | 0.51 mm | 0.89 m/s, 197° | - | - |
| 1778023542 | 10.56° C | 58% | 1012 hPa | 0.51 mm | 1.34 m/s, 172° | - | - |
| 1778023242 | 11.11° C | 57% | 1012 hPa | 0.51 mm | 0.45 m/s, 203° | - | - |
| 1778022942 | 11.11° C | 56% | 1012 hPa | 0.51 mm | 1.34 m/s, 222° | - | - |
* Rain since midnight (hover to see other rain measurements)
** Current wind speed in m/s (hover to see current wind gust speed)